Location: Ford County Road and Bridge Department
(37.7686°N, 99.9762°W)
Time: 04:13:28
(UTC+00:00)

Cosmos 1758 - Pass Details

Date: 18 January 2020
Orbit: 540 x 563 km, 82.5° (Epoch: 18 February)

Event Time Altitude Azimuth Distance (km) Brightness Sun altitude
Rises 11:30:15 0° 173° (S) 2,715 7.0 -27.9°
Reaches altitude 10° 11:32:27 10° 168° (SSE) 1,822 6.1 -27.5°
Maximum altitude 11:36:19 49° 93° (E) 716 4.2 -26.7°
Drops below altitude 10° 11:40:12 10° 19° (NNE) 1,823 6.1 -26.0°
Sets 11:42:24 0° 14° (NNE) 2,717 6.9 -25.5°
